Weather reports worldwide

Advertisment
Valley, United Kingdom (3302): temperature & dewpoint: 20.09.2018 04:00:00 - 26.09.2018 04:00:00 (BST)Valley, United Kingdom (3302): temperature -20cm & temperature -100cm: 20.09.2018 04:00:00 - 26.09.2018 04:00:00 (BST)Valley, United Kingdom (3302): wind speed & gusts: 20.09.2018 04:00:00 - 26.09.2018 04:00:00 (BST)Valley, United Kingdom (3302): wind direction: 20.09.2018 04:00:00 - 26.09.2018 04:00:00 (BST)Valley, United Kingdom (3302): reduced air pressure: 20.09.2018 04:00:00 - 26.09.2018 04:00:00 (BST)Valley, United Kingdom (3302): visibility: 20.09.2018 04:00:00 - 26.09.2018 04:00:00 (BST)Valley, United Kingdom (3302): sunshine duration: 20.09.2018 04:00:00 - 26.09.2018 04:00:00 (BST)Valley, United Kingdom (3302): precipitation: 20.09.2018 04:00:00 - 26.09.2018 04:00:00 (BST)
Date & Time tt [°C] td [°C] tt -20cm [°C] tt -100cm [°C] ff [km/h] ff [kn] fx [km/h] fx [kn] dd ppp [hPa] vv [km] sd [min] rr [mm]
26.09.2018 04:00:00 14,1 12,6 - - 44 24 57 31 SSW 1029,5 11 0 0,2
26.09.2018 03:00:00 14,3 11,9 - - 44 24 57 31 SSW 1030,4 11 0 0,0
26.09.2018 02:00:00 14,3 11,8 - - 48 26 59 32 SSW 1030,6 12 0 0,0
26.09.2018 01:00:00 14,3 11,6 - - 46 25 59 32 SSW 1030,9 12 - 0,0
26.09.2018 00:00:00 14,2 11,4 - - 44 24 59 32 SSW 1031,1 12 0 0,0
25.09.2018 23:00:00 14,3 11,3 - - 44 24 57 31 SSW 1031,4 13 0 0,0
25.09.2018 22:00:00 14,2 11,0 - - 44 24 61 33 SSW 1031,2 10 0 0,0
25.09.2018 21:00:00 14,0 10,3 - - 50 27 63 34 SSW 1031,2 13 0 0,0
25.09.2018 20:00:00 13,9 10,0 - - 50 27 61 33 SSW 1031,7 10 0 0,0
25.09.2018 19:00:00 14,0 10,0 - - 50 27 63 34 SSW 1031,8 60 0 0,0
25.09.2018 18:00:00 14,1 9,1 - - 52 28 67 36 SSW 1031,4 10 0 0,0
25.09.2018 17:00:00 14,2 9,4 - - 48 26 59 32 SSW 1031,8 10 0 0,0
25.09.2018 16:00:00 14,3 8,8 - - 48 26 57 31 SSW 1032,9 10 6 0,0
25.09.2018 15:00:00 14,8 9,2 - - 48 26 63 34 SSW 1033,4 10 42 0,0
25.09.2018 14:00:00 14,5 9,5 - - 46 25 57 31 SSW 1033,6 10 0 0,0
25.09.2018 13:00:00 14,4 9,4 - - 41 22 55 30 SSW 1034,5 10 0 0,0
25.09.2018 12:00:00 14,9 8,8 - - 44 24 52 28 S 1034,8 10 36 0,0
25.09.2018 11:00:00 13,3 8,8 - - 39 21 48 26 S 1035,5 60 18 0,0
25.09.2018 10:00:00 13,1 8,4 12,7 14,2 39 21 48 26 S 1035,7 10 12 0,0
25.09.2018 09:00:00 12,4 8,1 - - 37 20 - - SSW 1035,8 10 18 0,0
25.09.2018 08:00:00 11,4 8,0 - - 31 17 - - S 1035,9 10 6 0,0
25.09.2018 07:00:00 10,9 6,8 - - 29 16 - - S 1035,6 60 0 0,0
25.09.2018 06:00:00 10,7 7,1 - - 26 14 - - S 1035,8 50 0 0,0
25.09.2018 05:00:00 6,5 4,2 - - 16 9 - - SE 1036,4 50 0 0,0
25.09.2018 04:00:00 6,2 3,8 - - 13 7 - - SE 1037,6 50 0 0,0
25.09.2018 03:00:00 7,0 4,2 - - 11 6 - - SE 1037,7 50 0 0,0
25.09.2018 02:00:00 7,5 4,8 - - 11 6 - - SE 1037,9 50 0 0,0
25.09.2018 01:00:00 6,6 4,4 - - 11 6 - - SE 1038,3 50 - 0,0
25.09.2018 00:00:00 7,5 4,3 - - 8 4 - - SSE 1038,8 50 0 0,0
24.09.2018 23:00:00 6,5 3,2 - - 8 4 - - ESE 1039,0 10 0 0,0
24.09.2018 22:00:00 7,0 3,2 - - 4 2 - - E 1039,0 50 0 0,0
24.09.2018 21:00:00 7,5 3,1 - - 2 1 - - E 1039,1 50 0 0,0
24.09.2018 20:00:00 9,8 3,9 - - 8 4 - - WSW 1038,7 50 6 0,0
24.09.2018 19:00:00 11,2 3,4 - - 8 4 - - WSW 1038,8 50 60 0,0
24.09.2018 18:00:00 12,7 3,6 - - 9 5 - - W 1039,0 10 60 0,0
24.09.2018 17:00:00 12,8 3,8 - - 13 7 - - WNW 1039,1 10 60 0,0
24.09.2018 16:00:00 13,3 4,4 - - 13 7 - - W 1039,4 10 60 0,0
24.09.2018 15:00:00 13,5 5,8 - - 15 8 - - W 1039,5 10 60 0,0
24.09.2018 14:00:00 13,4 6,7 - - 16 9 - - W 1039,6 10 36 0,0
24.09.2018 13:00:00 12,9 5,7 - - 16 9 - - WNW 1040,0 10 12 0,0
24.09.2018 12:00:00 12,5 5,4 - - 18 10 - - NW 1039,8 10 54 0,0
24.09.2018 11:00:00 13,0 6,0 - - 16 9 - - NW 1039,4 10 54 0,0
24.09.2018 10:00:00 12,0 6,6 13,0 14,5 16 9 - - NW 1039,1 10 54 0,0
24.09.2018 09:00:00 10,7 6,5 - - 13 7 - - WNW 1038,4 10 54 0,0
24.09.2018 08:00:00 8,4 5,7 - - 9 5 - - WNW 1037,8 10 18 0,0
24.09.2018 07:00:00 8,5 5,6 - - 11 6 - - WNW 1037,2 50 0 0,0
24.09.2018 06:00:00 8,1 3,8 - - 9 5 - - NNW 1037,0 40 0 0,0
24.09.2018 05:00:00 8,9 4,0 - - 11 6 - - NNW 1036,7 45 0 0,0
24.09.2018 04:00:00 9,4 4,6 - - 13 7 - - NW 1036,5 40 0 0,0
24.09.2018 03:00:00 9,7 4,4 - - 13 7 - - NW 1036,3 45 0 0,0
24.09.2018 02:00:00 10,1 5,0 - - 16 9 - - NW 1035,7 45 0 0,0
24.09.2018 01:00:00 10,7 5,2 - - 21 11 - - NNW 1034,9 40 - 0,0
24.09.2018 00:00:00 10,6 5,2 - - 21 11 - - NNW 1034,0 40 0 0,0
23.09.2018 23:00:00 10,8 4,6 - - 21 11 - - NNW 1033,2 45 0 0,0
23.09.2018 22:00:00 11,4 5,5 - - 21 11 - - NNW 1032,4 45 0 0,0
23.09.2018 21:00:00 11,7 5,6 - - 24 13 - - NNW 1031,3 50 0 0,0
23.09.2018 20:00:00 11,6 5,6 - - 22 12 - - NNW 1030,1 50 6 0,0
23.09.2018 19:00:00 11,8 6,0 - - 22 12 - - NW 1028,8 10 30 0,0
23.09.2018 18:00:00 12,6 5,7 - - 31 17 48 26 NW 1028,2 45 42 0,0
23.09.2018 17:00:00 12,7 5,6 - - 28 15 48 26 NW 1027,1 35 60 0,0
23.09.2018 16:00:00 13,2 6,4 - - 28 15 - - NW 1026,3 40 36 0,0
23.09.2018 15:00:00 12,7 5,0 - - 29 16 52 28 NNW 1025,3 40 36 0,0
23.09.2018 14:00:00 12,9 5,6 - - 31 17 - - NW 1024,2 35 30 0,0
23.09.2018 13:00:00 12,7 5,6 - - 31 17 48 26 NW 1023,1 35 48 0,0
23.09.2018 12:00:00 12,0 5,7 - - 28 15 - - NW 1022,1 45 24 0,0
23.09.2018 11:00:00 11,8 5,1 - - 28 15 - - NNW 1021,2 45 30 0,0
23.09.2018 10:00:00 11,6 4,9 13,2 14,7 26 14 - - NNW 1020,3 10 42 0,0
23.09.2018 09:00:00 10,7 4,3 - - 21 11 - - NNW 1019,3 50 0 0,0
23.09.2018 08:00:00 10,2 5,0 - - 18 10 - - NNW 1018,3 50 0 0,0
23.09.2018 07:00:00 9,9 5,6 - - 16 9 - - NNW 1017,8 50 0 0,0
23.09.2018 06:00:00 9,8 6,7 - - 11 6 - - N 1017,5 50 0 0,0
23.09.2018 05:00:00 9,9 7,0 - - 13 7 - - N 1017,1 45 0 0,0
23.09.2018 04:00:00 8,5 6,5 - - 11 6 - - N 1016,8 45 0 0,0
23.09.2018 03:00:00 7,8 5,6 - - 9 5 - - N 1016,8 45 0 0,0
23.09.2018 02:00:00 7,8 5,9 - - 11 6 - - N 1016,7 45 0 0,0
23.09.2018 01:00:00 7,8 6,4 - - 11 6 - - N 1016,7 35 - 0,0
23.09.2018 00:00:00 7,8 6,8 - - 9 5 - - NNE 1016,4 40 0 0,0
22.09.2018 23:00:00 8,2 6,9 - - 8 4 - - N 1016,5 40 0 0,0
22.09.2018 22:00:00 9,3 7,4 - - 5 3 - - NNE 1016,4 10 0 0,0
22.09.2018 21:00:00 10,0 7,7 - - 9 5 - - NE 1016,1 50 0 0,0
22.09.2018 20:00:00 10,8 7,0 - - 11 6 - - NE 1015,5 10 0 0,0
22.09.2018 19:00:00 10,9 7,4 - - 13 7 - - NNE 1015,2 10 0 0,0
22.09.2018 18:00:00 10,8 7,1 - - 11 6 - - NNE 1015,1 10 0 0,0
22.09.2018 17:00:00 11,7 8,2 - - 5 3 - - ESE 1015,5 45 0 0,0
22.09.2018 16:00:00 11,9 6,6 - - 5 3 - - S 1015,7 50 0 0,0
22.09.2018 15:00:00 11,8 7,7 - - 9 5 - - S 1015,8 45 0 0,0
22.09.2018 14:00:00 11,8 8,6 - - 11 6 - - S 1016,3 24 0 0,2
22.09.2018 13:00:00 11,6 8,9 - - 15 8 - - S 1016,6 11 0 0,2
22.09.2018 12:00:00 12,7 7,6 - - 8 4 - - SW 1016,8 25 0 0,0
22.09.2018 11:00:00 12,1 6,9 - - 8 4 - - WSW 1017,3 35 0 0,0
22.09.2018 10:00:00 11,9 6,5 13,5 14,9 8 4 - - W 1017,4 35 0 0,0
22.09.2018 09:00:00 10,7 6,6 - - 11 6 - - W 1017,0 30 0 0,0
22.09.2018 08:00:00 10,1 5,9 - - 11 6 - - W 1016,8 30 0 0,0
22.09.2018 07:00:00 10,3 5,1 - - 15 8 - - W 1017,2 10 0 0,0
22.09.2018 06:00:00 10,6 5,7 - - 16 9 - - W 1017,0 30 0 0,0
22.09.2018 05:00:00 10,4 6,2 - - 11 6 - - W 1017,2 30 0 0,0
22.09.2018 04:00:00 10,5 6,2 - - 16 9 - - W 1017,0 40 0 0,0
22.09.2018 03:00:00 11,2 6,3 - - 21 11 - - W 1017,0 35 0 0,0
22.09.2018 02:00:00 11,1 6,6 - - 21 11 - - W 1016,7 35 0 0,0
22.09.2018 01:00:00 11,5 6,4 - - 28 15 - - W 1016,4 45 - 0,0
22.09.2018 00:00:00 11,6 6,6 - - 24 13 - - W 1016,0 40 0 0,0
21.09.2018 23:00:00 12,4 6,5 - - 28 15 - - W 1015,7 45 0 0,0
21.09.2018 22:00:00 12,6 6,8 - - 21 11 - - W 1015,2 35 0 0,0
21.09.2018 21:00:00 12,6 6,7 - - 26 14 - - W 1014,7 30 0 0,0
21.09.2018 20:00:00 12,6 6,7 - - 29 16 - - W 1013,8 35 6 0,0
21.09.2018 19:00:00 13,0 6,1 - - 29 16 - - W 1012,9 10 24 0,0
21.09.2018 18:00:00 14,0 8,3 - - 31 17 48 26 W 1012,1 35 60 0,0
21.09.2018 17:00:00 14,5 8,6 - - 37 20 50 27 W 1011,1 10 60 0,0
21.09.2018 16:00:00 14,2 8,6 - - 34 18 55 30 W 1009,9 10 36 0,0
21.09.2018 15:00:00 11,7 9,5 - - 35 19 78 42 W 1009,1 10 0 0,2
21.09.2018 14:00:00 13,3 7,7 - - 44 24 74 40 W 1007,5 10 6 0,0
21.09.2018 13:00:00 13,5 8,1 - - 54 29 74 40 W 1005,5 10 36 0,0
21.09.2018 12:00:00 12,5 8,8 - - 46 25 70 38 W 1004,3 10 6 0,2
21.09.2018 11:00:00 9,9 8,0 - - 42 23 68 37 WSW 1003,6 10 0 0,6
21.09.2018 10:00:00 10,8 6,9 13,7 15,0 48 26 63 34 WSW 1003,4 50 18 0,0
21.09.2018 09:00:00 10,5 6,0 - - 50 27 63 34 WSW 1002,7 10 0 0,0
21.09.2018 08:00:00 10,2 5,4 - - 41 22 54 29 WSW 1002,5 10 0 0,0
21.09.2018 07:00:00 9,9 5,4 - - 37 20 54 29 W 1001,9 10 0 0,0
21.09.2018 06:00:00 10,1 6,3 - - 39 21 59 32 W 1001,2 10 0 0,0
21.09.2018 05:00:00 9,8 6,9 - - 41 22 59 32 W 1000,7 30 0 0,0
21.09.2018 04:00:00 9,9 7,1 - - 37 20 55 30 W 1000,1 35 0 0,2
21.09.2018 03:00:00 9,1 7,4 - - 37 20 57 31 W 999,0 9 0 0,4
21.09.2018 02:00:00 9,0 6,7 - - 37 20 54 29 WNW 997,5 24 0 0,6
21.09.2018 01:00:00 9,2 7,3 - - 31 17 63 34 NW 995,6 15 - 2,4
21.09.2018 00:00:00 9,4 7,9 - - 48 26 74 40 NW 994,0 2,8 0 1,6
20.09.2018 23:00:00 10,6 10,0 - - 35 19 48 26 NNW 991,6 5 0 3,4
20.09.2018 22:00:00 11,7 11,0 - - 24 13 - - N 991,4 4,7 0 6,6
20.09.2018 21:00:00 13,3 12,8 - - 16 9 - - NNW 991,4 6 0 2,8
20.09.2018 20:00:00 13,0 12,4 - - 9 5 - - E 992,9 10 0 0,4
20.09.2018 19:00:00 12,4 11,6 - - 15 8 - - E 994,7 10 0 0,0
20.09.2018 18:00:00 11,8 11,1 - - 22 12 - - ENE 996,3 10 0 0,2
20.09.2018 17:00:00 11,6 11,0 - - 26 14 - - NE 998,1 6 0 2,6
20.09.2018 16:00:00 11,3 10,5 - - 22 12 - - NE 999,7 6 0 3,4
20.09.2018 15:00:00 11,0 10,2 - - 22 12 - - NE 1001,5 7 0 4,4
20.09.2018 14:00:00 11,1 9,8 - - 8 4 - - NE 1004,3 7 0 3,2
20.09.2018 13:00:00 11,6 9,2 - - 5 3 - - NE 1005,8 7 0 3,0
20.09.2018 12:00:00 12,9 7,9 - - 2 1 - - SSW 1007,0 10 0 0,4
20.09.2018 11:00:00 13,8 7,7 - - 9 5 - - S 1007,7 10 0 0,0
20.09.2018 10:00:00 13,7 7,5 14,9 15,0 13 7 - - SW 1008,4 10 0 0,0
20.09.2018 09:00:00 13,1 7,4 - - 13 7 - - WSW 1008,9 10 0 0,0
20.09.2018 08:00:00 12,9 7,4 - - 21 11 - - WSW 1009,0 10 0 0,0
20.09.2018 07:00:00 12,6 6,0 - - 18 10 - - WSW 1009,1 10 0 0,0
20.09.2018 06:00:00 13,0 6,6 - - 24 13 - - WSW 1009,1 19 0 0,0
20.09.2018 05:00:00 13,1 7,0 - - 24 13 - - WSW 1009,2 24 0 0,0
20.09.2018 04:00:00 13,4 6,1 - - 26 14 - - WSW 1009,3 29 0 0,0

tt = temperature
td = dewpoint
tt -20cm = temperature -20cm
tt -100cm = temperature -100cm
ff = wind speed
fx = gusts
dd = wind direction
ppp = reduced air pressure
vv = visibility
sd = sunshine duration
rr = precipitation

Next stations